Location: Wallasey
(53.4265°N, 3.0662°W)
Time: 23:34:29
(UTC+01:00)

NOAA 18 - Pass Details

Date: 21 September 2019
Orbit: 840 x 861 km, 99.1° (Epoch: 20 October)

Event Time Altitude Azimuth Distance (km) Brightness Sun altitude
Exits shadow 21:25:01 18° 173° (S) 2,005 6.8 -19.5°
Maximum altitude 21:29:16 72° 255° (WSW) 908 5.4 -20.0°
Drops below altitude 10° 21:34:51 10° 340° (NNW) 2,513 8.4 -20.7°
Sets 21:37:16 0° 343° (NNW) 3,454 9.1 -21.0°
